Погода в Приволжске

Россия / Ивановская область     57°22′50″N   41°16′50″E
темп.,
°C
ветер,
м/с
пор.,
м/с
влажн.,
%
обл.,
%
осадки,
мм/ч
давл.,
гПа
погр.,
м
22 января, сб
сб2200:00−8юв6139294 0.2 1005534
03:00−8юв61292100 0.4 1006464
06:00−9вюв6119397 0.1 1008326
09:00−9вюв61194100 0.3 1010339
12:00−8вюв6119496 0.4 1012389
15:00−7вюв5109498 0.8 1013390
18:00−8в51095100 0.4 1015330
21:00−9вюв499580 0.7 1017244
23 января, вс
вс2300:00−12в379688 0.1 1019121
03:00−15в349864 0.1 102154
06:00−18в2210080 0.0 102311
09:00−19всв1110091 0.1 10259
12:00−12ююв009584 0.1 102878
15:00−12зсз119727 0.1 10309
18:00−18сз1110066 0.0 10339
21:00−20зсз0010090 0.0 10359
24 января, пн
пн2400:00−21ююз0110095 0.0 10379
03:00−22з1110097 0.0 10389
06:00−22ююз00100100 0.0 10399
09:00−22ю22100100 0.0 104012
12:00−13ююз229675 0.0 104092
15:00−11ю229613 0.0 103922
18:00−17ю2210083 0.0 10399
21:00−17ю3510096 0.0 103750
25 января, вт
вт2500:00−18ю3510087 0.0 103655
03:00−18ю3410098 0.0 103453
06:00−16ю3710098 0.0 103190
09:00−16ю38100100 0.1 1030118
12:00−11ю489315 0.0 1027201
15:00−10ю49925 0.0 1024252
18:00−13ю4119628 0.0 1023189
21:00−14ю4109675 0.0 1022181
26 января, ср
ср2600:00−15ю4897100 0.0 1022135
03:00−16ю369747 0.0 102190
06:00−19ю349931 0.0 102148
09:00−20ю2310099 0.0 102240
12:00−12ю2393100 0.0 1021163
15:00−10юв1294100 0.1 1021151
18:00−11вюв1197100 0.1 102117
21:00−11юв1197100 0.3 102017